{"data":{"norad_id":62079,"epoch":"2026-09-22T13:35:12.145056Z","epoch_age_seconds":128932,"freshness":"FRESH","line1":"1 62079U 24218B   26265.56611279 -.00000058  00000+0  44881-6 0  9993","line2":"2 62079  97.4389 271.5173 0001596  87.7805 272.3613 15.19718956101231","mean_motion":15.19718956,"eccentricity":0.0001596,"inclination_deg":97.4389,"raan_deg":271.5173,"arg_perigee_deg":87.7805,"mean_anomaly_deg":272.3613,"bstar":4.4881e-7,"rev_number":10123,"period_min":94.754361937432,"perigee_km":505.59047912913,"apogee_km":507.78811568326,"semimajor_km":6884.8262974062,"source":"CELESTRAK","updated_at":"2026-09-23T09:00:21.209742Z"}}